Location: Home
(42.5358°N, 72.7383°W)
Time: 06:03:38
(UTC-05:00)

Explorer 11/Cluster Stage 4 - Pass Details

Date: 05 December 2021
Orbit: 467 x 1255 km, 28.8° (Epoch: 25 January)

Event Time Altitude Azimuth Distance (km) Brightness Sun altitude
Rises 01:27:41 0° 225° (SW) 3,314 - -60.1°
Reaches altitude 10° 01:30:41 10° 208° (SSW) 2,531 - -59.7°
Maximum altitude 01:35:03 20° 163° (SSE) 2,091 - -59.0°
Drops below altitude 10° 01:39:59 10° 119° (ESE) 2,929 - -58.2°
Exits shadow 01:43:18 - 106° (ESE) 3,869 10.4 -57.7°
Sets 01:43:46 0° 105° (ESE) 4,011 10.5 -57.6°
